User: anonymous   Login
Location: Stigler
(35.2540°N, 95.1230°W)
Time: 06:05:11
(UTC-06:00)
Language:

Cosmos 1805 - Orbit

View from above orbital plane
View from above orbital plane
View from above satellite
View from above satellite

Ground track
Ground track

The orbit data is extracted from the following two-line orbital elements,

1 17191U 86097A   15027.16540154  .00002746  00000-0  17207-3 0   923
2 17191 082.4911 166.9328 0005378 203.1691 156.9296 15.08973562531986
Epoch (UTC): 27 January 2015 03:58:10
Eccentricity: 0.0005378
inclination: 82.4911°
perigee height: 535 km
apogee height: 543 km
right ascension of ascending node: 166.9328°
argument of perigee: 203.1691°
revolutions per day: 15.08973562
mean anomaly at epoch: 156.9296°
orbit number at epoch: 53198

The dashed part of the orbit path shows where the satellite is in the earth's shadow,  

DLR